| time (UTC) | temp C | wind direction | speed KPH | gust KPH | rain 1hr cm | rain 24hr cm | rain mn cm | humidity % | barometer mb |
| 20260503005509 | 25 | 13 | 6.4 | 12.9 | 0.00 | 0.00 | 0.00 | 24 | 1011.0 |
| 20260503004738 | 25 | 331 | 4.8 | 11.3 | 0.00 | 0.00 | 0.00 | 25 | 1011.0 |
| 20260503004234 | 25 | 339 | 4.8 | 11.3 | 0.00 | 0.00 | 0.00 | 23 | 1011.0 |
| 20260503003726 | 25 | 8 | 4.8 | 12.9 | 0.00 | 0.00 | 0.00 | 22 | 1011.0 |
| 20260503003221 | 25 | 356 | 4.8 | 12.9 | 0.00 | 0.00 | 0.00 | 20 | 1011.0 |
| 20260503002939 | 25 | 354 | 3.2 | 11.3 | 0.00 | 0.00 | 0.00 | 19 | 1011.0 |
| 20260503002209 | 25 | 15 | 1.6 | 9.7 | 0.00 | 0.00 | 0.00 | 20 | 1011.0 |
| 20260503001702 | 25 | 338 | 0.0 | 0.0 | 0.00 | 0.00 | 0.00 | 20 | 1011.0 |
| 20260503001157 | 25 | 334 | 0.0 | 6.4 | 0.00 | 0.00 | 0.00 | 20 | 1011.1 |
| 20260503000651 | 25 | 334 | 3.2 | 8.0 | 0.00 | 0.00 | 0.00 | 19 | 1011.0 |
| 20260503000144 | 25 | 343 | 3.2 | 8.0 | 0.00 | 0.00 | 0.00 | 20 | 1011.1 |
| 20260502235638 | 25 | 2 | 3.2 | 8.0 | 0.00 | 0.00 | 0.00 | 19 | 1011.1 |
| 20260502235133 | 25 | 8 | 3.2 | 8.0 | 0.00 | 0.00 | 0.00 | 20 | 1011.1 |
| 20260502234627 | 25 | 333 | 3.2 | 8.0 | 0.00 | 0.00 | 0.00 | 19 | 1011.1 |
| 20260502234337 | 25 | 2 | 4.8 | 12.9 | 0.00 | 0.00 | 0.00 | 19 | 1011.2 |
| 20260502233616 | 25 | 313 | 3.2 | 12.9 | 0.00 | 0.00 | 0.00 | 20 | 1011.2 |
| 20260502233108 | 25 | 325 | 3.2 | 11.3 | 0.00 | 0.00 | 0.00 | 20 | 1011.3 |
| 20260502232603 | 25 | 327 | 4.8 | 14.5 | 0.00 | 0.00 | 0.00 | 20 | 1011.2 |
| 20260502232056 | 25 | 298 | 4.8 | 14.5 | 0.00 | 0.00 | 0.00 | 22 | 1011.2 |
| 20260502231551 | 25 | 350 | 3.2 | 12.9 | 0.00 | 0.00 | 0.00 | 20 | 1011.3 |
| 20260502231044 | 26 | 60 | 1.6 | 6.4 | 0.00 | 0.00 | 0.00 | 23 | 1011.4 |
| 20260502230538 | 25 | 112 | 3.2 | 12.9 | 0.00 | 0.00 | 0.00 | 19 | 1011.5 |
| 20260502230045 | 25 | 97 | 1.6 | 12.9 | 0.00 | 0.00 | 0.00 | 20 | 1011.5 |
| 20260502225526 | 25 | 18 | 1.6 | 9.7 | 0.00 | 0.00 | 0.00 | 20 | 1011.5 |
| 20260502224514 | 25 | 83 | 1.6 | 6.4 | 0.00 | 0.00 | 0.00 | 20 | 1011.6 |
| 20260502224008 | 25 | 326 | 1.6 | 9.7 | 0.00 | 0.00 | 0.00 | 20 | 1011.6 |
| 20260502223503 | 25 | 168 | 3.2 | 9.7 | 0.00 | 0.00 | 0.00 | 21 | 1011.7 |
| 20260502222958 | 25 | 137 | 3.2 | 9.7 | 0.00 | 0.00 | 0.00 | 20 | 1011.7 |
| 20260502222715 | 26 | 183 | 3.2 | 11.3 | 0.00 | 0.00 | 0.00 | 21 | 1011.7 |
| 20260502221945 | 26 | 56 | 4.8 | 11.3 | 0.00 | 0.00 | 0.00 | 19 | 1011.7 |
| 20260502221438 | 26 | 163 | 3.2 | 9.7 | 0.00 | 0.00 | 0.00 | 20 | 1011.9 |
| 20260502220932 | 25 | 143 | 3.2 | 6.4 | 0.00 | 0.00 | 0.00 | 19 | 1012.2 |
| 20260502220426 | 25 | 179 | 3.2 | 12.9 | 0.00 | 0.00 | 0.00 | 18 | 1012.0 |
| 20260502215921 | 25 | 338 | 4.8 | 12.9 | 0.00 | 0.00 | 0.00 | 20 | 1012.2 |
| 20260502215637 | 26 | 133 | 4.8 | 11.3 | 0.00 | 0.00 | 0.00 | 19 | 1012.3 |
| 20260502214908 | 26 | 354 | 4.8 | 11.3 | 0.00 | 0.00 | 0.00 | 19 | 1012.4 |
| 20260502214402 | 26 | 181 | 3.2 | 9.7 | 0.00 | 0.00 | 0.00 | 19 | 1012.5 |
| 20260502213856 | 26 | 143 | 3.2 | 11.3 | 0.00 | 0.00 | 0.00 | 21 | 1012.5 |
| 20260502213350 | 26 | 177 | 3.2 | 11.3 | 0.00 | 0.00 | 0.00 | 20 | 1012.5 |
| 20260502212845 | 26 | 78 | 3.2 | 11.3 | 0.00 | 0.00 | 0.00 | 22 | 1012.6 |
| 20260502212340 | 26 | 196 | 3.2 | 6.4 | 0.00 | 0.00 | 0.00 | 20 | 1012.6 |
| 20260502211832 | 26 | 160 | 1.6 | 8.0 | 0.00 | 0.00 | 0.00 | 21 | 1012.7 |
| 20260502211549 | 26 | 291 | 3.2 | 8.0 | 0.00 | 0.00 | 0.00 | 20 | 1012.8 |
| 20260502211042 | 26 | 174 | 3.2 | 8.0 | 0.00 | 0.00 | 0.00 | 22 | 1012.9 |
| 20260502210538 | 26 | 207 | 3.2 | 11.3 | 0.00 | 0.00 | 0.00 | 24 | 1012.9 |
| 20260502205809 | 25 | 133 | 3.2 | 11.3 | 0.00 | 0.00 | 0.00 | 21 | 1013.0 |
| 20260502205305 | 25 | 79 | 3.2 | 11.3 | 0.00 | 0.00 | 0.00 | 22 | 1013.0 |
| 20260502204756 | 25 | 354 | 3.2 | 12.9 | 0.00 | 0.00 | 0.00 | 26 | 1013.1 |
| 20260502204250 | 26 | 102 | 3.2 | 12.9 | 0.00 | 0.00 | 0.00 | 25 | 1013.1 |
| 20260502203744 | 26 | 105 | 3.2 | 9.7 | 0.00 | 0.00 | 0.00 | 26 | 1013.2 |
| 20260502203504 | 25 | 104 | 3.2 | 9.7 | 0.00 | 0.00 | 0.00 | 27 | 1013.2 |
| 20260502202732 | 25 | 134 | 1.6 | 9.7 | 0.00 | 0.00 | 0.00 | 27 | 1013.2 |
| 20260502202226 | 25 | 140 | 1.6 | 8.0 | 0.00 | 0.00 | 0.00 | 29 | 1013.2 |
| 20260502201720 | 25 | 321 | 1.6 | 8.0 | 0.00 | 0.00 | 0.00 | 28 | 1013.3 |
| 20260502201214 | 25 | 40 | 1.6 | 8.0 | 0.00 | 0.00 | 0.00 | 29 | 1013.4 |
| 20260502200708 | 25 | 162 | 1.6 | 8.0 | 0.00 | 0.00 | 0.00 | 32 | 1013.7 |
| 20260502200203 | 25 | 191 | 1.6 | 4.8 | 0.00 | 0.00 | 0.00 | 29 | 1013.8 |
| 20260502195656 | 25 | 177 | 1.6 | 6.4 | 0.00 | 0.00 | 0.00 | 33 | 1013.9 |
| 20260502195150 | 23 | 344 | 1.6 | 8.0 | 0.00 | 0.00 | 0.00 | 31 | 1013.9 |
| 20260502194717 | 23 | 55 | 1.6 | 8.0 | 0.00 | 0.00 | 0.00 | 32 | 1014.0 |
| 20260502194138 | 23 | 198 | 0.0 | 6.4 | 0.00 | 0.00 | 0.00 | 34 | 1014.1 |
| 20260502193632 | 22 | 127 | 0.0 | 3.2 | 0.00 | 0.00 | 0.00 | 34 | 1014.1 |
| 20260502193127 | 22 | 337 | 1.6 | 4.8 | 0.00 | 0.00 | 0.00 | 36 | 1014.3 |
| 20260502192620 | 22 | 329 | 1.6 | 4.8 | 0.00 | 0.00 | 0.00 | 34 | 1014.5 |
| 20260502192114 | 22 | 331 | 1.6 | 6.4 | 0.00 | 0.00 | 0.00 | 35 | 1014.4 |
| 20260502191609 | 23 | 331 | 1.6 | 6.4 | 0.00 | 0.00 | 0.00 | 34 | 1014.4 |
| 20260502191102 | 23 | 337 | 3.2 | 11.3 | 0.00 | 0.00 | 0.00 | 38 | 1014.4 |
| 20260502190815 | 22 | 13 | 1.6 | 11.3 | 0.00 | 0.00 | 0.00 | 36 | 1014.5 |
| 20260502190104 | 22 | 135 | 1.6 | 4.8 | 0.00 | 0.00 | 0.00 | 39 | 1014.6 |
| 20260502185545 | 22 | 6 | 1.6 | 6.4 | 0.00 | 0.00 | 0.00 | 38 | 1014.7 |
| 20260502185044 | 21 | 320 | 1.6 | 6.4 | 0.00 | 0.00 | 0.00 | 39 | 1014.9 |
| 20260502184802 | 21 | 158 | 1.6 | 8.0 | 0.00 | 0.00 | 0.00 | 37 | 1015.0 |
| 20260502184047 | 21 | 5 | 1.6 | 8.0 | 0.00 | 0.00 | 0.00 | 39 | 1015.0 |
| 20260502183544 | 21 | 152 | 1.6 | 4.8 | 0.00 | 0.00 | 0.00 | 39 | 1015.1 |
| 20260502183044 | 21 | 28 | 1.6 | 8.0 | 0.00 | 0.00 | 0.00 | 39 | 1015.2 |
| 20260502182544 | 21 | 326 | 1.6 | 8.0 | 0.00 | 0.00 | 0.00 | 39 | 1015.3 |
| 20260502182045 | 21 | 350 | 4.8 | 12.9 | 0.00 | 0.00 | 0.00 | 41 | 1015.4 |
| 20260502181545 | 20 | 350 | 3.2 | 12.9 | 0.00 | 0.00 | 0.00 | 41 | 1015.5 |
| 20260502181308 | 20 | 289 | 3.2 | 11.3 | 0.00 | 0.00 | 0.00 | 41 | 1015.6 |
| 20260502180545 | 20 | 72 | 3.2 | 11.3 | 0.00 | 0.00 | 0.00 | 44 | 1015.7 |
| 20260502170516 | 17 | 348 | 1.6 | 9.7 | 0.00 | 0.00 | 0.00 | 50 | 1015.9 |
| 20260502163947 | 16 | 160 | 1.6 | 8.0 | 0.00 | 0.00 | 0.00 | 52 | 1016.3 |
| 20260502163439 | 15 | 197 | 1.6 | 8.0 | 0.00 | 0.00 | 0.00 | 53 | 1016.3 |
| 20260502162934 | 15 | 336 | 3.2 | 8.0 | 0.00 | 0.00 | 0.00 | 57 | 1016.2 |
| 20260502162427 | 14 | 331 | 1.6 | 8.0 | 0.00 | 0.00 | 0.00 | 58 | 1016.2 |
| 20260502161921 | 13 | 339 | 1.6 | 4.8 | 0.00 | 0.00 | 0.00 | 65 | 1016.3 |
| 20260502161415 | 13 | 343 | 1.6 | 4.8 | 0.00 | 0.00 | 0.00 | 64 | 1016.0 |
| 20260502160910 | 12 | 325 | 1.6 | 3.2 | 0.00 | 0.00 | 0.00 | 63 | 1016.2 |
| 20260502160403 | 11 | 327 | 1.6 | 6.4 | 0.00 | 0.00 | 0.00 | 66 | 1016.2 |
| 20260502152316 | 8 | 343 | 3.2 | 9.7 | 0.00 | 0.00 | 0.00 | 79 | 1016.0 |
| 20260502151810 | 8 | 329 | 4.8 | 11.3 | 0.00 | 0.00 | 0.00 | 81 | 1015.9 |
| 20260502151303 | 8 | 348 | 4.8 | 11.3 | 0.00 | 0.00 | 0.00 | 84 | 1015.9 |
| 20260502150757 | 7 | 357 | 4.8 | 9.7 | 0.00 | 0.00 | 0.00 | 87 | 1016.0 |
| 20260502150518 | 7 | 3 | 1.6 | 9.7 | 0.00 | 0.00 | 0.00 | 89 | 1015.9 |
| 20260502130534 | 5 | 77 | 0.0 | 0.0 | 0.00 | 0.00 | 0.00 | 87 | 1015.3 |
| 20260502123722 | 5 | 159 | 0.0 | 0.0 | 0.00 | 0.00 | 0.00 | 84 | 1015.2 |
| 20260502122951 | 5 | 159 | 0.0 | 0.0 | 0.00 | 0.00 | 0.00 | 84 | 1015.0 |
| 20260502122449 | 5 | 159 | 0.0 | 0.0 | 0.00 | 0.00 | 0.00 | 83 | 1015.0 |
| 20260502121947 | 5 | 159 | 0.0 | 0.0 | 0.00 | 0.00 | 0.00 | 83 | 1014.9 |
| 20260502121500 | 5 | 159 | 0.0 | 0.0 | 0.00 | 0.00 | 0.00 | 83 | 1014.9 |
| 20260502120946 | 5 | 159 | 0.0 | 0.0 | 0.00 | 0.00 | 0.00 | 83 | 1014.9 |
| 20260502120446 | 5 | 159 | 0.0 | 0.0 | 0.00 | 0.00 | 0.00 | 82 | 1015.0 |
| 20260502115447 | 6 | 159 | 0.0 | 0.0 | 0.00 | 0.00 | 0.00 | 82 | 1015.1 |
| 20260502114946 | 6 | 159 | 0.0 | 0.0 | 0.00 | 0.00 | 0.00 | 82 | 1015.2 |
| 20260502114444 | 6 | 159 | 0.0 | 0.0 | 0.00 | 0.00 | 0.00 | 82 | 1015.2 |
| 20260502113945 | 6 | 159 | 0.0 | 0.0 | 0.00 | 0.00 | 0.00 | 81 | 1015.2 |
| 20260502113445 | 6 | 159 | 0.0 | 0.0 | 0.00 | 0.00 | 0.00 | 82 | 1015.1 |
| 20260502112945 | 6 | 159 | 0.0 | 0.0 | 0.00 | 0.00 | 0.00 | 82 | 1015.1 |
| 20260502112445 | 7 | 159 | 0.0 | 0.0 | 0.00 | 0.00 | 0.00 | 82 | 1015.1 |
| 20260502111944 | 7 | 159 | 0.0 | 0.0 | 0.00 | 0.00 | 0.00 | 83 | 1015.1 |
| 20260502111444 | 7 | 159 | 0.0 | 0.0 | 0.00 | 0.00 | 0.00 | 83 | 1015.2 |
| 20260502110944 | 7 | 159 | 0.0 | 0.0 | 0.00 | 0.00 | 0.00 | 84 | 1015.2 |
| 20260502110444 | 7 | 159 | 0.0 | 0.0 | 0.00 | 0.00 | 0.00 | 84 | 1015.2 |
| 20260502105945 | 7 | 159 | 0.0 | 0.0 | 0.00 | 0.00 | 0.00 | 82 | 1015.3 |
| 20260502105444 | 6 | 159 | 0.0 | 0.0 | 0.00 | 0.00 | 0.00 | 76 | 1015.3 |
| 20260502104944 | 6 | 159 | 0.0 | 0.0 | 0.00 | 0.00 | 0.00 | 75 | 1015.3 |
| 20260502104442 | 6 | 159 | 0.0 | 0.0 | 0.00 | 0.00 | 0.00 | 75 | 1015.4 |
| 20260502104203 | 6 | 159 | 0.0 | 0.0 | 0.00 | 0.00 | 0.00 | 74 | 1015.3 |
| 20260502103704 | 6 | 159 | 0.0 | 0.0 | 0.00 | 0.00 | 0.00 | 74 | 1015.3 |
| 20260502102940 | 6 | 159 | 0.0 | 0.0 | 0.00 | 0.00 | 0.00 | 73 | 1015.3 |
| 20260502102440 | 6 | 159 | 0.0 | 0.0 | 0.00 | 0.00 | 0.00 | 73 | 1015.3 |
| 20260502101940 | 6 | 159 | 0.0 | 0.0 | 0.00 | 0.00 | 0.00 | 72 | 1015.3 |
| 20260502101927 | 6 | 159 | 0.0 | 0.0 | 0.00 | 0.00 | 0.00 | 72 | 1015.3 |
| 20260502100941 | 7 | 159 | 0.0 | 0.0 | 0.00 | 0.00 | 0.00 | 72 | 1015.1 |
| 20260502100438 | 7 | 159 | 0.0 | 0.0 | 0.00 | 0.00 | 0.00 | 72 | 1015.1 |
| 20260502091435 | 7 | 159 | 0.0 | 0.0 | 0.00 | 0.00 | 0.00 | 67 | 1015.2 |
| 20260502090935 | 7 | 159 | 0.0 | 0.0 | 0.00 | 0.00 | 0.00 | 67 | 1015.2 |
| 20260502090656 | 7 | 159 | 0.0 | 0.0 | 0.00 | 0.00 | 0.00 | 66 | 1015.2 |
| 20260502071424 | 10 | 98 | 0.0 | 0.0 | 0.00 | 0.00 | 0.00 | 58 | 1015.4 |
| 20260502071156 | 10 | 98 | 0.0 | 0.0 | 0.00 | 0.00 | 0.00 | 58 | 1015.4 |
| 20260502070424 | 10 | 98 | 0.0 | 0.0 | 0.00 | 0.00 | 0.00 | 57 | 1015.5 |
| 20260502065924 | 10 | 98 | 0.0 | 1.6 | 0.00 | 0.00 | 0.00 | 56 | 1015.4 |
| 20260502065424 | 10 | 98 | 0.0 | 1.6 | 0.00 | 0.00 | 0.00 | 56 | 1015.5 |
| 20260502064924 | 10 | 98 | 0.0 | 1.6 | 0.00 | 0.00 | 0.00 | 56 | 1015.5 |
| 20260502064649 | 10 | 98 | 0.0 | 1.6 | 0.00 | 0.00 | 0.00 | 55 | 1015.6 |
| 20260502063924 | 10 | 98 | 0.0 | 1.6 | 0.00 | 0.00 | 0.00 | 54 | 1015.6 |
| 20260502063424 | 10 | 98 | 0.0 | 1.6 | 0.00 | 0.00 | 0.00 | 54 | 1015.6 |
| 20260502062924 | 11 | 98 | 0.0 | 0.0 | 0.00 | 0.00 | 0.00 | 53 | 1015.6 |
| 20260502062424 | 11 | 98 | 0.0 | 0.0 | 0.00 | 0.00 | 0.00 | 53 | 1015.5 |
| 20260502061924 | 11 | 98 | 0.0 | 0.0 | 0.00 | 0.00 | 0.00 | 53 | 1015.5 |
| 20260502061644 | 11 | 98 | 0.0 | 0.0 | 0.00 | 0.00 | 0.00 | 52 | 1015.4 |
| 20260502060924 | 11 | 98 | 0.0 | 0.0 | 0.00 | 0.00 | 0.00 | 51 | 1015.4 |
| 20260502060424 | 11 | 98 | 0.0 | 1.6 | 0.00 | 0.00 | 0.00 | 51 | 1015.4 |
| 20260502055924 | 11 | 98 | 0.0 | 1.6 | 0.00 | 0.00 | 0.00 | 50 | 1015.4 |
| 20260502055424 | 11 | 98 | 0.0 | 0.0 | 0.00 | 0.00 | 0.00 | 50 | 1015.5 |
| 20260502055151 | 12 | 98 | 0.0 | 1.6 | 0.00 | 0.00 | 0.00 | 49 | 1015.4 |
| 20260502054422 | 12 | 98 | 0.0 | 1.6 | 0.00 | 0.00 | 0.00 | 49 | 1015.4 |
| 20260502053922 | 12 | 98 | 0.0 | 3.2 | 0.00 | 0.00 | 0.00 | 48 | 1015.4 |
| 20260502053420 | 12 | 98 | 0.0 | 3.2 | 0.00 | 0.00 | 0.00 | 48 | 1015.5 |
| 20260502053228 | 12 | 98 | 0.0 | 3.2 | 0.00 | 0.00 | 0.00 | 47 | 1015.5 |
| 20260502053119 | 12 | 100 | 0.0 | 3.2 | 0.00 | 0.00 | 0.00 | 47 | 1015.4 |
| 20260502052144 | 12 | 100 | 0.0 | 3.2 | 0.00 | 0.00 | 0.00 | 47 | 1015.5 |
| 20260502051416 | 13 | 96 | 0.0 | 1.6 | 0.00 | 0.00 | 0.00 | 47 | 1015.5 |
| 20260502051136 | 13 | 96 | 0.0 | 1.6 | 0.00 | 0.00 | 0.00 | 47 | 1015.5 |
| 20260502050416 | 13 | 96 | 0.0 | 3.2 | 0.00 | 0.00 | 0.00 | 46 | 1015.5 |
| 20260502050136 | 13 | 96 | 1.6 | 8.0 | 0.00 | 0.00 | 0.00 | 46 | 1015.5 |
| 20260502045416 | 13 | 127 | 1.6 | 8.0 | 0.00 | 0.00 | 0.00 | 45 | 1015.5 |
| 20260502045134 | 13 | 113 | 0.0 | 3.2 | 0.00 | 0.00 | 0.00 | 47 | 1015.5 |
| 20260502044416 | 13 | 113 | 1.6 | 3.2 | 0.00 | 0.00 | 0.00 | 47 | 1015.4 |
| 20260502044136 | 13 | 115 | 0.0 | 3.2 | 0.00 | 0.00 | 0.00 | 47 | 1015.5 |
| 20260502043412 | 14 | 87 | 0.0 | 3.2 | 0.00 | 0.00 | 0.00 | 46 | 1015.6 |
| 20260502042912 | 14 | 87 | 1.6 | 4.8 | 0.00 | 0.00 | 0.00 | 46 | 1015.5 |
| 20260502042412 | 15 | 87 | 1.6 | 4.8 | 0.00 | 0.00 | 0.00 | 46 | 1015.6 |
| 20260502042136 | 15 | 65 | 0.0 | 3.2 | 0.00 | 0.00 | 0.00 | 46 | 1015.5 |
| 20260502041412 | 15 | 23 | 0.0 | 0.0 | 0.00 | 0.00 | 0.00 | 47 | 1015.5 |
| 20260502040912 | 15 | 346 | 0.0 | 0.0 | 0.00 | 0.00 | 0.00 | 45 | 1015.5 |
| 20260502040633 | 16 | 346 | 0.0 | 0.0 | 0.00 | 0.00 | 0.00 | 44 | 1015.4 |
| 20260502035912 | 16 | 346 | 0.0 | 0.0 | 0.00 | 0.00 | 0.00 | 43 | 1015.3 |
| 20260502035412 | 16 | 346 | 0.0 | 3.2 | 0.00 | 0.00 | 0.00 | 44 | 1015.4 |
| 20260502034908 | 16 | 346 | 0.0 | 3.2 | 0.00 | 0.00 | 0.00 | 42 | 1015.3 |
| 20260502034409 | 17 | 346 | 0.0 | 0.0 | 0.00 | 0.00 | 0.00 | 41 | 1015.3 |
| 20260502034130 | 17 | 346 | 0.0 | 1.6 | 0.00 | 0.00 | 0.00 | 41 | 1015.4 |
| 20260502033408 | 17 | 346 | 0.0 | 1.6 | 0.00 | 0.00 | 0.00 | 41 | 1015.4 |
| 20260502032908 | 18 | 346 | 0.0 | 1.6 | 0.00 | 0.00 | 0.00 | 39 | 1015.3 |
| 20260502032411 | 18 | 345 | 0.0 | 3.2 | 0.00 | 0.00 | 0.00 | 38 | 1015.2 |
| 20260502031911 | 18 | 345 | 1.6 | 4.8 | 0.00 | 0.00 | 0.00 | 37 | 1015.1 |
| 20260502031411 | 18 | 345 | 3.2 | 4.8 | 0.00 | 0.00 | 0.00 | 35 | 1015.0 |
| 20260502030911 | 19 | 349 | 3.2 | 4.8 | 0.00 | 0.00 | 0.00 | 34 | 1014.9 |
| 20260502030407 | 19 | 4 | 3.2 | 4.8 | 0.00 | 0.00 | 0.00 | 33 | 1014.9 |
| 20260502025907 | 19 | 354 | 3.2 | 4.8 | 0.00 | 0.00 | 0.00 | 32 | 1014.9 |
| 20260502025407 | 20 | 4 | 1.6 | 8.0 | 0.00 | 0.00 | 0.00 | 32 | 1014.7 |
| 20260502025127 | 20 | 4 | 3.2 | 8.0 | 0.00 | 0.00 | 0.00 | 30 | 1014.7 |
| 20260502024404 | 20 | 2 | 3.2 | 4.8 | 0.00 | 0.00 | 0.00 | 30 | 1014.7 |
| 20260502023904 | 20 | 15 | 3.2 | 4.8 | 0.00 | 0.00 | 0.00 | 29 | 1014.7 |
| 20260502023404 | 20 | 356 | 1.6 | 4.8 | 0.00 | 0.00 | 0.00 | 28 | 1014.7 |
| 20260502022904 | 21 | 4 | 1.6 | 3.2 | 0.00 | 0.00 | 0.00 | 28 | 1014.7 |
| 20260502022404 | 21 | 4 | 1.6 | 3.2 | 0.00 | 0.00 | 0.00 | 27 | 1014.7 |
| 20260502021900 | 21 | 10 | 1.6 | 3.2 | 0.00 | 0.00 | 0.00 | 26 | 1014.6 |
| 20260502021400 | 21 | 52 | 0.0 | 3.2 | 0.00 | 0.00 | 0.00 | 24 | 1014.6 |
| 20260502020900 | 21 | 92 | 0.0 | 3.2 | 0.00 | 0.00 | 0.00 | 25 | 1014.6 |
| 20260502020359 | 21 | 89 | 0.0 | 3.2 | 0.00 | 0.00 | 0.00 | 24 | 1014.7 |
| 20260502015900 | 21 | 89 | 1.6 | 4.8 | 0.00 | 0.00 | 0.00 | 23 | 1014.6 |
| 20260502015400 | 22 | 86 | 1.6 | 4.8 | 0.00 | 0.00 | 0.00 | 22 | 1014.6 |
| 20260502014900 | 22 | 106 | 0.0 | 4.8 | 0.00 | 0.00 | 0.00 | 22 | 1014.7 |
| 20260502014400 | 22 | 61 | 0.0 | 8.0 | 0.00 | 0.00 | 0.00 | 23 | 1014.6 |
| 20260502013900 | 22 | 12 | 0.0 | 8.0 | 0.00 | 0.00 | 0.00 | 23 | 1014.7 |
| 20260502013400 | 22 | 73 | 0.0 | 3.2 | 0.00 | 0.00 | 0.00 | 22 | 1014.7 |
| 20260502012900 | 22 | 94 | 0.0 | 3.2 | 0.00 | 0.00 | 0.00 | 21 | 1014.9 |
| 20260502012400 | 22 | 90 | 1.6 | 4.8 | 0.00 | 0.00 | 0.00 | 20 | 1014.9 |
| 20260502011900 | 22 | 102 | 1.6 | 4.8 | 0.00 | 0.00 | 0.00 | 20 | 1015.0 |
| 20260502011400 | 22 | 50 | 1.6 | 4.8 | 0.00 | 0.00 | 0.00 | 21 | 1015.0 |
| 20260502010900 | 22 | 151 | 0.0 | 3.2 | 0.00 | 0.00 | 0.00 | 21 | 1015.1 |
| 20260502010400 | 22 | 142 | 0.0 | 3.2 | 0.00 | 0.00 | 0.00 | 21 | 1015.0 |
| 20260502005859 | 22 | 142 | 1.6 | 4.8 | 0.00 | 0.00 | 0.00 | 20 | 1015.0 |